Regional Weather Roundup
Issued by NWS

Home | Current Version | Previous Version | Text Only | Print | Product List | Glossary On
Versions: 1 2 3 4 5 6 7 8 9 10 11 12 13 14 15 16 17 18 19 20 21 22 23 24 25 26 27
000
ASUS45 KSLC 210310
RWRUT

UTAH REGIONAL WEATHER ROUNDUP
NATIONAL WEATHER SERVICE SALT LAKE CITY UT
900 PM MDT SUN AUG 20 2017

UTZ001>011-023>025-210400-

NORTHERN UTAH

CITY           SKY/WX    TMP DP  RH WIND       PRES   REMARKS
BRIGHAM CITY   CLEAR     80  43  27 CALM      29.98R
HILL AFB       CLEAR     80  43  27 E5        30.01R
LOGAN          CLEAR     79  48  33 CALM      29.99R
OGDEN          CLEAR     79  40  24 N3        29.98R
SALT LAKE CITY PTCLDY    85  40  20 CALM      29.96R
TOOELE VALLEY  CLEAR     64  46  52 S7        29.99R
WENDOVER       PTCLDY    85  35  16 CALM      29.97R
HEBER CITY     MOCLDY    77  34  20 S8        30.08R
WEST JORDAN    PTCLDY    80  51  36 W6        30.01R

$$

UTZ011>015-024>027-210400-

CENTRAL/NORTHEAST UTAH

CITY           SKY/WX    TMP DP  RH WIND       PRES   REMARKS
PROVO AIRPORT  MOCLDY    77  45  32 S10       30.02R
MOAB/CANYONLAN CLOUDY    87  33  14 W8        29.98R
DELTA          MOCLDY    77  32  19 S8        30.02S
PRICE          MOCLDY    72  37  28 N8        30.12R
ROOSEVELT      CLOUDY    73  41  31 N6        30.09S
VERNAL         CLEAR     76  38  25 NW8       30.08R

$$

UTZ013>016-019>022-027-210400-

SOUTHERN UTAH

CITY           SKY/WX    TMP DP  RH WIND       PRES   REMARKS
BRYCE CANYON   CLOUDY    58  49  72 W13       30.34F
CEDAR CITY     CLOUDY    76  43  30 SE13G26   30.14R
MILFORD        CLOUDY    77  45  32 W22       30.10R
ST GEORGE      MOCLDY    86  47  25 E9        29.95R
HANKSVILLE     CLOUDY    82  36  18 W6        30.04R
BLANDING       CLOUDY    73  41  31 NE3       30.21R

$$

REGIONAL REPORTS     COLORADO/ARIZONA

CITY           SKY/WX    TMP DP  RH WIND       PRES   REMARKS
CRAIG, CO      CLOUDY    62  45  53 VRB3      30.16R
GRAND JUNCTION CLEAR     84  31  14 N10       29.99R
RIFLE, CO      CLOUDY    79  32  18 W7        30.08R
MONTROSE, CO   CLOUDY    76  39  26 SE10      30.12R
CORTEZ, CO     CLOUDY    73  44  35 S18       30.15R
COLORADO CITY    N/A     73  52  46 N6        30.13R
PAGE, AZ       CLOUDY    83  47  28 NW15G24   30.05R
GRAND CANYON   CLOUDY    60  49  66 CALM      30.29R
KINGMAN, AZ    CLOUDY    79  55  43 E32G47    30.03R HAZE
FLAGSTAFF, AZ  CLOUDY    58  48  69 VRB7      30.28S

$$

REGIONAL REPORTS    NEVADA/IDAHO/WYOMING

CITY           SKY/WX    TMP DP  RH WIND       PRES   REMARKS
LAS VEGAS, NV  MOCLDY    97  42  15 SE9       29.83R HX  93
ELY, NY        CLEAR     69  24  18 SE9       30.11R
ELKO, NV       PTCLDY    80  31  16 E3        30.02R
POCATELLO, ID  CLEAR     69  38  32 S10       30.03R
BURLEY, ID     PTCLDY    68  45  43 S8        30.01R
FORT BRIDGER,  CLOUDY    69  37  31 S12       30.25R
EVANSTON, WY   CLEAR     70  32  24 W9        30.22R
ROCK SPRINGS,  CLOUDY    70  35  27 SW15      30.18R
KEMMERER, WY     N/A    N/A N/A N/A N9        30.24R

$$




USA.gov is the U.S. government's official web portal to all federal, state and local government web resources and services.